User: anonymous   Login
Location: Unspecified
(0.0000°N, 0.0000°E)
Time: 02:44:41
(UTC+00:00)
Language:

M-CUBED/EXP-1 PRIME - Orbit

View from above orbital plane
View from above orbital plane
View from above satellite
View from above satellite

Ground track
Ground track

The orbit data is extracted from the following two-line orbital elements,

1 37855U 11061F   19110.84306371  .00001102  00000-0  63343-4 0  9998
2 37855 101.7230 336.2146 0173839 251.2366 106.9915 15.05278893407926
Epoch (UTC): 20 April 2019 20:14:00
Eccentricity: 0.0173839
inclination: 101.7230°
perigee height: 430 km
apogee height: 671 km
right ascension of ascending node: 336.2146°
argument of perigee: 251.2366°
revolutions per day: 15.05278893
mean anomaly at epoch: 106.9915°
orbit number at epoch: 40792

The dashed part of the orbit path shows where the satellite is in the earth's shadow,  

DLR